SCP
0 0 0 0 0 0 0 0 0 0 0 1 1 1 2 4 6 7 6 5 4 3 2 2 2 2 2 2 2 2 2 1 1 1 1 1 2 2 2 2 2 2 2 3
0 0 0 0 0 0 0 0 0 0 0 1 1 2 3 5 6 6 6 4 3 3 2 2 2 2 2 2 3 2 2 1 1 1 1 1 1 2 2 1 2 2 2 2
0 0 0 0 0 1 1 1 0 1 1 1 2 3 4 5 6 5 4 3 3 2 2 2 2 3 3 3 3 3 2 2 1 1 1 1 1 1 1 1 1 1 2 2
0 0 0 0 1 1 1 1 1 1 2 3 3 3 4 5 5 4 3 3 2 2 2 2 2 2 3 3 3 3 2 2 2 2 2 1 1 1 1 1 1 1 2 2
0 0 0 1 1 1 1 1 1 1 2 4 4 4 3 3 3 3 2 2 2 2 2 2 2 2 2 2 3 3 3 2 2 2 2 2 2 1 1 1 1 1 1 2
0 0 1 2 2 2 1 1 1 1 2 4 4 4 3 2 2 2 2 1 1 1 2 2 2 2 2 2 3 3 3 3 3 3 3 2 2 2 2 1 1 1 1 2
0 1 2 2 3 2 1 1 1 1 2 3 4 3 3 2 2 2 2 1 1 1 2 2 2 3 3 3 3 3 3 3 2 2 2 2 2 2 2 2 2 1 1 2
1 1 2 2 2 2 1 1 1 1 1 2 2 2 2 2 2 2 1 1 1 1 2 2 3 3 3 3 3 3 3 2 2 2 2 3 3 2 2 2 2 2 1 2
1 1 1 1 1 1 1 1 1 1 1 1 2 2 2 2 2 2 2 1 1 1 2 3 3 3 3 3 3 3 3 3 3 2 2 3 3 3 2 2 2 2 2 2
0 0 0 0 0 0 0 1 1 1 1 1 2 3 3 3 3 3 4 4 2 1 2 2 3 3 3 3 4 4 4 4 4 3 3 3 4 4 3 3 3 3 3 3
0 0 0 0 0 0 0 1 1 1 1 2 4 5 6 5 5 5 6 6 4 2 2 2 3 3 4 5 6 6 6 5 5 4 3 4 4 4 4 3 3 3 3 3
0 0 0 0 0 0 0 1 1 1 1 2 4 6 6 7 6 5 5 6 6 4 2 2 3 4 5 7 9 9 8 7 6 5 4 4 4 4 3 3 2 2 3 4
0 0 0 0 0 0 0 1 1 1 1 2 3 4 4 5 5 3 3 5 7 6 4 3 3 5 7 9 10 10 10 9 8 6 5 4 5 4 3 2 1 1 1 2
0 0 0 0 0 0 0 0 0 0 0 1 1 2 2 2 2 1 1 3 5 6 6 5 5 6 7 9 11 11 11 11 9 7 5 5 6 6 4 3 2 1 1 0
0 0 0 0 0 0 0 0 0 0 0 0 1 2 3 2 1 1 1 1 3 5 6 7 7 7 9 10 11 11 12 12 11 9 8 8 7 6 4 3 2 1 1 0
0 0 0 0 0 0 0 0 0 0 0 0 1 3 3 2 1 1 1 1 1 3 5 8 8 8 9 11 12 12 13 12 12 11 11 10 9 5 3 2 1 1 1 1
0 0 0 0 0 0 0 0 0 0 0 0 1 2 2 2 1 1 0 0 0 1 3 5 6 6 7 9 11 12 12 11 11 10 10 9 7 4 2 1 1 1 1 1
0 0 0 0 0 0 0 1 1 1 0 0 0 1 1 1 1 0 0 0 0 0 1 2 3 4 5 6 8 8 8 9 9 8 6 4 3 2 1 0 0 0 1 1
0 0 0 0 0 1 1 2 2 2 1 0 0 0 0 0 0 0 0 0 0 0 0 0 1 2 3 3 4 4 4 5 7 6 4 2 1 1 1 0 0 0 1 1
0 0 0 0 0 1 1 2 3 2 1 0 0 0 0 0 0 0 0 0 0 0 0 0 0 1 2 2 2 2 2 3 4 4 3 2 1 1 0 0 0 0 1 1
0 0 0 0 0 0 1 2 2 2 1 0 0 0 0 0 0 0 0 0 0 0 0 0 0 1 1 1 1 1 1 1 2 2 2 2 1 1 1 0 0 1 1 1
0 0 0 0 0 0 1 1 1 1 0 0 0 0 0 0 0 0 0 0 0 0 0 0 0 1 1 1 1 1 1 1 1 1 1 1 1 1 1 1 1 1 1 0
0 0 0 0 0 0 0 0 0 0 0 1 1 0 0 0 0 0 0 0 0 0 0 0 0 0 0 1 1 1 1 1 1 1 1 1 1 1 1 1 0 0 0 0
0 0 0 0 0 0 0 0 1 1 1 1 1 0 0 0 0 0 0 0 0 0 0 0 0 0 0 0 0 1 1 1 1 0 0 0 0 0 0 0 0 0 0 0
0 0 0 0 0 0 1 1 1 1 1 1 1 0 0 0 0 0 0 0 0 0 0 0 0 0 0 0 0 0 0 1 1 0 0 0 0 0 0 0 0 0 0 0
0 0 0 0 0 1 1 1 2 2 1 1 1 0 0 0 0 0 0 0 0 0 0 0 0 0 0 0 0 0 0 0 1 1 0 1 1 0 0 0 0 0 0 0
0 0 0 0 1 1 1 2 2 2 1 1 0 0 0 0 0 0 0 0 0 0 0 0 0 0 0 0 0 0 0 0 0 1 1 1 1 1 0 0 0 0 0 0
Wind_Speed
2 2 2 2 2 4 4 6 7 6 6 6 5 4 3 2 3 3 3 2 3 3 3 3 3 3 3 3 3 3 4 4 4 3 3 2 2 2 1 2 2 1 1 1
1 1 0 1 2 2 2 3 3 2 5 3 1 1 1 2 3 3 2 2 3 2 2 3 3 3 3 3 3 3 3 3 2 2 2 2 3 2 2 2 2 1 1 1
2 2 2 3 3 3 2 2 4 6 6 1 1 2 4 3 4 4 3 2 2 3 3 3 4 4 4 3 3 3 3 2 2 2 2 3 3 2 2 2 2 2 2 2
2 2 3 6 1 3 3 1 1 2 2 3 3 2 1 2 4 4 4 3 3 3 2 2 2 2 2 3 3 4 3 3 3 3 3 2 2 2 2 2 2 2 2 2
4 3 3 4 2 3 4 1 1 1 1 1 1 2 2 1 2 4 3 3 3 3 3 2 2 2 3 3 3 3 4 4 4 4 3 3 3 3 3 2 2 3 2 2
4 4 6 6 2 1 4 2 2 2 2 2 3 2 3 1 1 1 2 2 2 1 2 1 1 3 3 3 3 4 4 4 4 4 4 5 4 4 3 2 3 3 2 2
4 3 6 4 3 1 3 6 3 3 3 3 3 4 2 1 1 1 1 1 1 2 2 2 2 3 3 3 4 4 3 3 3 4 4 4 4 3 2 2 2 2 2 2
4 3 7 2 1 4 6 1 2 3 3 3 2 1 0 1 0 1 1 1 1 1 1 1 2 3 3 4 4 2 3 3 3 3 3 3 3 2 2 2 2 2 2 2
6 6 4 2 3 2 2 2 2 2 2 3 2 1 0 0 0 0 0 0 0 1 0 0 1 3 5 4 2 2 2 3 3 3 3 3 3 3 2 2 2 2 2 2
1 4 3 3 2 1 1 1 1 2 2 2 2 2 1 1 1 1 1 1 0 1 0 2 2 3 4 3 2 3 3 3 2 2 2 2 2 2 2 2 2 2 2 2
2 4 3 3 2 1 1 2 3 2 1 1 2 2 2 2 2 2 1 1 1 1 2 3 2 2 2 2 2 2 2 2 2 2 2 2 2 2 3 3 4 4 3 3
6 6 4 4 3 1 1 0 1 1 0 1 2 3 2 2 2 2 2 1 1 2 2 2 2 2 2 2 3 3 2 2 2 2 2 2 2 0 1 1 2 3 3 3
6 4 4 3 2 1 2 1 1 1 2 1 1 2 2 2 2 2 1 1 2 3 3 2 2 2 2 2 3 3 3 3 2 2 2 2 2 2 1 1 2 1 1 2
3 2 2 2 3 2 1 1 0 0 0 0 1 1 1 1 1 1 2 2 2 2 2 2 2 3 3 2 2 3 3 3 3 2 2 2 2 2 2 2 1 1 1 0
3 3 4 2 1 1 0 1 1 1 1 1 1 1 1 1 2 2 2 2 2 2 2 1 2 4 3 2 2 3 2 2 2 2 2 2 2 2 2 2 2 1 0 0
1 1 1 1 1 1 0 1 1 2 2 2 1 2 2 2 2 3 2 2 2 2 3 3 3 4 3 2 2 2 2 3 3 2 2 2 2 2 2 2 2 2 2 2
2 2 2 2 2 2 2 2 3 3 3 2 3 3 2 1 1 2 3 3 3 3 3 3 4 4 3 2 3 2 2 3 3 2 2 2 2 3 3 3 3 2 2 2
4 4 4 4 3 2 2 2 2 2 3 3 2 2 2 2 3 4 3 2 2 3 3 3 3 3 3 3 3 3 3 2 2 3 3 3 3 3 3 3 3 3 2 1
2 2 2 2 3 2 2 3 3 3 2 2 2 3 3 4 3 3 2 1 2 3 4 4 4 3 3 3 3 2 3 3 2 2 3 3 3 3 3 3 3 3 2 2
1 0 0 1 1 2 2 3 2 2 2 2 2 2 3 4 3 3 2 3 4 4 4 3 3 3 3 3 3 2 3 3 3 2 2 3 3 3 3 3 3 2 2 2
1 2 1 2 3 3 3 3 2 3 3 3 3 4 4 4 3 3 2 3 5 3 3 3 2 2 2 2 2 2 2 3 3 3 3 3 3 3 3 3 3 2 2 2
2 2 2 2 3 4 4 3 3 3 3 3 3 3 3 3 3 3 4 4 4 3 2 2 2 3 2 2 2 2 2 2 2 3 3 3 3 3 3 2 2 2 2 2
2 3 3 3 4 4 5 3 3 2 3 3 3 4 4 4 3 3 3 3 2 2 2 2 3 3 2 1 1 2 2 2 2 2 2 3 3 3 3 2 2 2 2 2
3 3 4 4 3 3 4 4 3 2 3 3 3 4 3 3 2 3 3 3 3 3 2 3 3 2 1 1 1 1 1 2 2 2 2 2 2 2 2 2 2 2 2 3
3 3 3 3 2 2 3 3 2 2 1 1 2 2 2 2 2 2 2 2 2 2 2 2 2 1 1 1 1 1 1 1 2 2 2 2 2 2 2 2 2 2 2 2
2 2 2 3 3 2 2 1 1 1 1 1 2 2 1 1 1 1 1 1 1 1 1 1 1 1 0 1 1 1 1 1 1 1 2 2 3 3 2 3 4 3 3 3
2 2 2 2 2 1 1 1 1 1 1 1 2 2 2 1 1 1 1 0 0 0 0 1 1 0 1 1 0 0 0 1 1 1 2 2 2 2 3 3 3 3 3 3
Wind_Direction
212 233 191 223 226 181 182 183 183 217 214 237 232 227 220 179 147 123 121 129 147 165 172 168 167 174 171 177 172 171 171 183 198 198 189 185 197 207 218 220 221 226 239 266
347 348 177 294 294 209 201 184 191 190 249 254 235 176 160 160 149 145 165 166 159 151 149 165 174 173 165 167 166 158 174 196 201 194 196 200 206 208 223 246 249 238 241 258
236 304 43 295 260 201 184 199 174 203 231 194 159 201 202 190 170 175 193 183 174 184 190 194 187 174 176 179 160 159 175 189 193 197 210 222 221 213 229 240 239 248 248 249
139 86 217 243 256 148 136 109 212 221 225 193 206 215 205 181 178 190 186 182 192 187 192 206 184 174 170 153 169 178 184 194 198 203 218 219 207 218 230 228 229 238 246 252
127 165 263 285 258 169 151 242 257 191 164 137 120 68 349 261 183 193 193 192 199 191 181 173 172 162 145 158 174 187 200 206 207 206 217 219 219 224 225 219 238 246 245 247
129 155 220 242 264 211 115 266 248 178 161 131 104 127 251 259 204 195 185 179 176 151 133 156 180 147 150 174 183 207 214 213 209 207 211 218 221 222 222 217 232 246 254 248
150 190 253 257 285 113 166 231 209 174 172 158 167 202 239 218 148 141 156 165 141 133 147 186 181 154 171 186 210 220 215 209 207 210 212 213 214 214 212 217 233 247 254 261
144 174 248 286 124 178 214 209 146 163 171 159 162 164 144 162 136 63 43 44 115 134 172 181 164 164 189 218 221 205 198 202 209 214 218 214 208 219 214 204 214 241 255 280
183 209 255 277 236 243 168 152 170 163 170 153 150 191 217 213 280 303 280 295 114 145 141 317 199 188 204 229 215 192 194 210 219 218 217 207 202 210 212 202 209 234 237 256
246 281 290 306 316 338 102 143 149 138 147 153 174 204 218 228 282 296 293 283 266 122 193 275 256 228 223 226 201 183 199 218 217 205 212 210 204 203 205 206 212 221 233 246
253 274 310 322 309 276 47 73 86 79 119 183 183 218 210 221 245 260 272 275 238 203 217 248 262 261 243 202 180 183 200 213 218 209 200 204 213 216 212 216 208 205 219 224
218 220 194 240 258 213 121 136 144 121 331 292 221 216 209 215 230 234 248 254 256 252 244 256 260 266 268 214 188 183 196 214 219 219 210 198 190 310 31 229 223 214 218 220
221 223 211 242 262 234 211 227 241 225 208 239 263 220 208 222 229 223 222 223 229 247 253 254 259 274 270 236 202 196 206 216 210 211 207 203 193 185 203 18 40 49 214 200
231 205 232 243 246 251 211 213 179 334 281 198 235 239 213 223 229 225 238 245 240 245 256 260 270 274 271 233 209 216 219 215 204 208 205 208 206 199 193 194 226 325 3 95
275 226 216 231 251 269 223 124 89 351 330 325 244 229 218 211 227 242 247 242 242 256 269 277 282 281 283 226 212 222 224 220 207 198 198 203 195 189 199 207 209 218 264 331
297 29 150 167 210 243 145 147 189 250 249 242 241 245 235 220 225 240 247 228 213 245 264 268 268 272 274 240 226 227 225 220 202 180 190 190 178 182 198 208 211 213 225 215
171 211 202 201 221 232 237 233 224 238 242 233 237 237 234 224 238 254 264 262 245 248 251 248 256 265 261 239 228 227 228 220 209 188 189 183 183 193 197 200 205 216 235 223
195 204 203 200 208 227 254 259 241 234 239 236 217 219 228 224 234 246 255 264 285 294 282 261 258 269 265 244 225 220 220 217 206 200 197 193 197 198 196 194 199 213 232 222
165 182 205 218 221 219 237 254 257 246 238 219 200 216 236 239 238 243 247 260 272 278 280 277 276 273 266 253 235 212 209 207 207 205 194 191 193 195 195 197 199 206 210 203
29 331 250 284 284 251 246 253 252 247 244 221 211 222 241 248 240 232 226 244 246 245 257 270 272 265 264 257 240 203 192 197 202 202 192 191 195 198 203 207 204 207 214 211
347 327 321 301 291 277 259 253 245 251 252 224 212 225 238 250 244 228 218 259 269 261 264 269 265 263 259 247 223 194 188 195 199 198 197 194 195 202 207 209 207 213 219 216
314 303 292 286 286 286 282 270 252 249 256 250 240 234 236 250 253 250 242 239 256 271 266 264 264 258 256 241 208 193 189 193 197 197 198 190 189 199 209 210 208 214 220 220
297 291 288 282 274 276 286 283 263 249 248 249 246 240 237 240 229 221 259 263 255 260 262 262 262 256 243 206 203 206 204 203 199 196 194 191 194 197 203 213 217 216 220 227
297 297 294 292 293 293 291 289 286 272 262 262 254 244 235 240 252 240 237 259 268 266 262 261 259 255 227 195 196 199 202 201 198 194 194 193 192 193 194 203 217 225 225 230
293 302 311 317 312 289 276 289 311 310 300 293 289 276 247 220 227 254 256 253 251 251 273 278 276 259 228 212 200 196 205 209 205 194 191 188 193 195 193 200 215 228 229 230
295 293 289 278 268 271 276 271 278 291 298 309 312 305 298 286 259 259 255 245 236 236 259 287 288 257 220 209 206 211 211 221 207 196 198 198 198 197 201 209 219 224 226 227
320 315 314 319 322 305 283 262 265 286 282 273 292 299 301 306 312 309 298 276 128 163 249 259 253 224 217 237 249 240 229 235 230 221 219 216 211 208 210 215 219 223 230 232